STARLINK-32707, 62478

Orbit data source: Space-Track

STARLINK-32707, 62478 is a payload satellite owned by SpaceX/Seattle (US) in LEO that was launched on Tue, 31 Dec 2024 UTC via an FALCON 9 launch vehicle from the Air Force Eastern Test Range (AFETR). Payload-class satellites include a variety of spacecraft equipped with specific instruments for various scientific and technological missions. These include communications satellites like Starlink; space stations such as the ISS; scientific satellites like the Hubble; Earth observation satellites from companies like Planet Labs, Umbra, and HawkEye 360; GPS; miniature CubeSats for education and research; and military/defense satellites.

Loading next visibility...
Identifier
62478, 2024-254S
Orbit
LEO
Last TLE update
18 hours ago
Origin
Manufacturer
SpaceX/Seattle
Mission
Operational Commercial Communications
Bus & Motor
STARLINK V2M, Unknown motor
Mass
730 kg wet, ~700 kg dry
Launch date (UTC)
2024-12-31 (7 months ago)
Launch vehicle
FALCON 9
Launch site
Air Force Eastern Test Range (AFETR)
Object type
Payload
Rocket body
Debris
Shape & HBR
Box + 2 Pan, 14.5 m
Radar Cross Section
33.884 m², Large (>1 m²)

Expand to show TLE details & history

TLE from 18 hours ago
0 STARLINK-32707
1 62478U 24254S   25199.21901603  .00015442  00000-0  56932-3 0  9996
2 62478  43.0006 260.5416 0001386 273.9237  86.1456 15.27589212 31799
Epoch: 2025-07-18T05:15Z
TLE epoch observation values (Epoch: 2025-07-18T05:15:22.984Z)
Latitude
-0.00005°
Longitude
-114.57784°
Altitude
482.733 km
Speed
7.626 km/s
True Right ascension
17h 22m 09s
True Declination
0° 00' 00"
Sunlit
Object was in full shadow at epoch
Visualization orbit readout
Latitude
-13.14009°
Longitude
75.56942°
Altitude
485.176 km
Speed
7.624 km/s
Apparent Right ascension
03h 40m 38s
Apparent Declination
-33° 42' 50"
Sunlit
Object is in daylight
Visualization observer readout
Local Sidereal Time
12:10:47
Azimuth
261.336° W
Elevation
-48.148°
Doppler factor
1
Orbital elements
Apogee altitude
485.918 km
Perigee altitude
484.015 km
Semi-major axis
6,863.104 km
Eccentricity
0.00014
Inclination
43.0006°
RAAN
260.5416°
Arg. of periapsis
273.9237°
True anomaly
86.16145°
Mean anomaly
86.1456°
Eccentric anomaly
86.15352°
Mean motion
3.81735 °/min
Orbital period
94.31 mins
BSTAR
0.00056932
Loading maneuver chart data...
Loading SW <> Apogee altitude chart data...
Loading historical data...
Loading historical data...
Loading historical data...
Loading historical data...
Loading historical data...
Loading historical data...
Loading historical data...
|